Location: Gälforsberget
(66.6500°N, 22.4167°E)
Time: 21:42:25
(UTC+00:00)

Cosmos 1937 Rocket - Pass Details

Date: 11 April 2026
Orbit: 742 x 775 km, 74.0° (Epoch: 13 May)

Event Time Altitude Azimuth Distance (km) Brightness Sun altitude
Rises 19:24:38 0° 205° (SSW) 3,251 6.6 -7.6°
Reaches altitude 10° 19:27:02 10° 203° (SSW) 2,326 5.8 -7.8°
Maximum altitude 19:32:15 63° 123° (ESE) 865 3.5 -8.2°
Drops below altitude 10° 19:37:28 10° 44° (NE) 2,327 6.1 -8.5°
Sets 19:39:52 0° 41° (NE) 3,253 6.8 -8.7°
